owner,sensor,date,latitude,longitude,vertical_datum,direction_of_sea_water_velocity,sea_water_speed,upward_sea_water_velocity,qcFlag 
TABS,ioos:station:wmo:42050:1,2016-06-01T00:00:00Z,28.8425,-94.2433,2.0,250.9909164,24.31597212,-99999.0,'11111222,11111222,99999999' 
TABS,ioos:station:wmo:42050:1,2016-06-01T00:30:00Z,28.8425,-94.2433,2.0,264.0767515,24.71191818,-99999.0,'11111222,11111222,99999999' 
TABS,ioos:station:wmo:42050:1,2016-06-01T01:00:00Z,28.8425,-94.2433,2.0,286.9792133,19.03989758,-99999.0,'11111222,11111222,99999999' 
TABS,ioos:station:wmo:42050:1,2016-06-01T01:30:00Z,28.8425,-94.2433,2.0,301.5481242,21.36811878,-99999.0,'11111222,11111222,99999999' 
TABS,ioos:station:wmo:42050:1,2016-06-01T02:00:00Z,28.8425,-94.2433,2.0,324.384427,23.85171273,-99999.0,'11111222,11111222,99999999' 
TABS,ioos:station:wmo:42050:1,2016-06-01T02:30:00Z,28.8425,-94.2433,2.0,340.3123056,23.7164289,-99999.0,'11111222,11111222,99999999' 
TABS,ioos:station:wmo:42050:1,2016-06-01T03:00:00Z,28.8425,-94.2433,2.0,349.4876079,27.62367101,-99999.0,'11111222,11111222,99999999' 
TABS,ioos:station:wmo:42050:1,2016-06-01T03:30:00Z,28.8425,-94.2433,2.0,359.0025156,25.84391805,-99999.0,'11111222,11144222,99999999' 
TABS,ioos:station:wmo:42050:1,2016-06-01T04:00:00Z,28.8425,-94.2433,2.0,41.51937556,49.96441234,-99999.0,'11111222,11111222,99999999' 
TABS,ioos:station:wmo:42050:1,2016-06-01T04:30:00Z,28.8425,-94.2433,2.0,45.11850331,44.48418258,-99999.0,'11111222,11111222,99999999' 
TABS,ioos:station:wmo:42050:1,2016-06-01T05:00:00Z,28.8425,-94.2433,2.0,51.39788422,38.83574899,-99999.0,'11111222,11111222,99999999' 
TABS,ioos:station:wmo:42050:1,2016-06-01T05:30:00Z,28.8425,-94.2433,2.0,53.5029245,32.28068308,-99999.0,'11111222,11111222,99999999' 
TABS,ioos:station:wmo:42050:1,2016-06-01T06:00:00Z,28.8425,-94.2433,2.0,57.86607164,32.58123693,-99999.0,'11111222,11111222,99999999' 
TABS,ioos:station:wmo:42050:1,2016-06-01T06:30:00Z,28.8425,-94.2433,2.0,55.33738359,33.49485035,-99999.0,'11111222,11111222,99999999' 
TABS,ioos:station:wmo:42050:1,2016-06-01T07:00:00Z,28.8425,-94.2433,2.0,56.55146014,30.93313111,-99999.0,'11111222,11111222,99999999' 
TABS,ioos:station:wmo:42050:1,2016-06-01T07:30:00Z,28.8425,-94.2433,2.0,58.03575685,25.14209617,-99999.0,'11111222,11111222,99999999' 
TABS,ioos:station:wmo:42050:1,2016-06-01T08:00:00Z,28.8425,-94.2433,2.0,46.03891108,26.13189048,-99999.0,'11111222,11111222,99999999' 
TABS,ioos:station:wmo:42050:1,2016-06-01T08:30:00Z,28.8425,-94.2433,2.0,39.81416207,25.97228138,-99999.0,'11111222,11111222,99999999' 
TABS,ioos:station:wmo:42050:1,2016-06-01T09:00:00Z,28.8425,-94.2433,2.0,47.31038302,21.40030374,-99999.0,'11111222,11111222,99999999' 
TABS,ioos:station:wmo:42050:1,2016-06-01T09:30:00Z,28.8425,-94.2433,2.0,43.72873956,21.67108673,-99999.0,'11111222,11111222,99999999' 
TABS,ioos:station:wmo:42050:1,2016-06-01T10:00:00Z,28.8425,-94.2433,2.0,327.001588,251.0006974,-99999.0,'11144222,11111222,99999999' 
TABS,ioos:station:wmo:42050:1,2016-06-01T10:30:00Z,28.8425,-94.2433,2.0,51.98857862,16.56328772,-99999.0,'11111222,11111222,99999999' 
TABS,ioos:station:wmo:42050:1,2016-06-01T11:00:00Z,28.8425,-94.2433,2.0,48.74062992,15.39114681,-99999.0,'11111222,11111222,99999999' 
TABS,ioos:station:wmo:42050:1,2016-06-01T11:30:00Z,28.8425,-94.2433,2.0,51.67642314,18.36791224,-99999.0,'11111222,11111222,99999999' 
TABS,ioos:station:wmo:42050:1,2016-06-01T12:00:00Z,28.8425,-94.2433,2.0,63.53008764,21.56019712,-99999.0,'11111222,11111222,99999999' 
TABS,ioos:station:wmo:42050:1,2016-06-01T12:30:00Z,28.8425,-94.2433,2.0,82.03732694,29.52466257,-99999.0,'11111222,11111222,99999999' 
TABS,ioos:station:wmo:42050:1,2016-06-01T13:00:00Z,28.8425,-94.2433,2.0,79.38837137,26.39134707,-99999.0,'11111222,11111222,99999999' 
TABS,ioos:station:wmo:42050:1,2016-06-01T13:30:00Z,28.8425,-94.2433,2.0,83.10582755,21.24360139,-99999.0,'11111222,11111222,99999999' 
TABS,ioos:station:wmo:42050:1,2016-06-01T14:00:00Z,28.8425,-94.2433,2.0,100.8125194,18.97691229,-99999.0,'11111222,11111222,99999999' 
TABS,ioos:station:wmo:42050:1,2016-06-01T14:30:00Z,28.8425,-94.2433,2.0,125.6811925,17.16169281,-99999.0,'11111222,11111222,99999999' 
TABS,ioos:station:wmo:42050:1,2016-06-01T15:00:00Z,28.8425,-94.2433,2.0,135.7210606,20.22485599,-99999.0,'11111222,11111222,99999999' 
TABS,ioos:station:wmo:42050:1,2016-06-01T15:30:00Z,28.8425,-94.2433,2.0,133.1485195,20.79272228,-99999.0,'11111222,11111222,99999999' 
TABS,ioos:station:wmo:42050:1,2016-06-01T16:00:00Z,28.8425,-94.2433,2.0,148.1331878,18.82773752,-99999.0,'11111222,11111222,99999999' 
TABS,ioos:station:wmo:42050:1,2016-06-01T16:30:00Z,28.8425,-94.2433,2.0,152.5922782,13.38207757,-99999.0,'11111222,11111222,99999999' 
TABS,ioos:station:wmo:42050:1,2016-06-01T17:00:00Z,28.8425,-94.2433,2.0,159.9550453,15.87141141,-99999.0,'11111222,11111222,99999999' 
TABS,ioos:station:wmo:42050:1,2016-06-01T17:30:00Z,28.8425,-94.2433,2.0,153.329671,24.37318198,-99999.0,'11111222,11111222,99999999' 
TABS,ioos:station:wmo:42050:1,2016-06-01T18:00:00Z,28.8425,-94.2433,2.0,172.7064573,37.57400431,-99999.0,'11111222,11111222,99999999' 
TABS,ioos:station:wmo:42050:1,2016-06-01T18:30:00Z,28.8425,-94.2433,2.0,180.3804859,39.13086378,-99999.0,'11111222,11111222,99999999' 
TABS,ioos:station:wmo:42050:1,2016-06-01T19:00:00Z,28.8425,-94.2433,2.0,193.4581051,42.32219394,-99999.0,'11111222,11111222,99999999' 
TABS,ioos:station:wmo:42050:1,2016-06-01T19:30:00Z,28.8425,-94.2433,2.0,197.3331534,43.09716,-99999.0,'11111222,11111222,99999999' 
TABS,ioos:station:wmo:42050:1,2016-06-01T20:00:00Z,28.8425,-94.2433,2.0,199.3395734,43.45195162,-99999.0,'11111222,11111222,99999999' 
TABS,ioos:station:wmo:42050:1,2016-06-01T20:30:00Z,28.8425,-94.2433,2.0,198.4857402,39.04465777,-99999.0,'11111222,11111222,99999999' 
TABS,ioos:station:wmo:42050:1,2016-06-01T21:00:00Z,28.8425,-94.2433,2.0,197.7955555,37.13693714,-99999.0,'11111222,11111222,99999999' 
TABS,ioos:station:wmo:42050:1,2016-06-01T21:30:00Z,28.8425,-94.2433,2.0,202.277729,36.61295945,-99999.0,'11111222,11111222,99999999' 
TABS,ioos:station:wmo:42050:1,2016-06-01T22:00:00Z,28.8425,-94.2433,2.0,195.1810399,34.71135405,-99999.0,'11111222,11111222,99999999' 
TABS,ioos:station:wmo:42050:1,2016-06-01T22:30:00Z,28.8425,-94.2433,2.0,201.3014456,35.34473794,-99999.0,'11111222,11111222,99999999' 
TABS,ioos:station:wmo:42050:1,2016-06-01T23:00:00Z,28.8425,-94.2433,2.0,194.4142823,27.91888429,-99999.0,'11111222,11111222,99999999' 
TABS,ioos:station:wmo:42050:1,2016-06-01T23:30:00Z,28.8425,-94.2433,2.0,201.4680854,25.8752256,-99999.0,'11111222,11111222,99999999' 
TABS,ioos:station:wmo:42050:1,2016-06-02T00:00:00Z,28.8425,-94.2433,2.0,186.1562945,12.4015241,-99999.0,'11111222,11111222,99999999' 
TABS,ioos:station:wmo:42050:1,2016-06-02T00:30:00Z,28.8425,-94.2433,2.0,203.3528444,4.868860236,-99999.0,'11133222,11111222,99999999' 
TABS,ioos:station:wmo:42050:1,2016-06-02T01:00:00Z,28.8425,-94.2433,2.0,112.9620661,5.408558033,-99999.0,'11133222,11111222,99999999' 
TABS,ioos:station:wmo:42050:1,2016-06-02T01:30:00Z,28.8425,-94.2433,2.0,44.75886183,6.717573967,-99999.0,'11133222,11111222,99999999' 
TABS,ioos:station:wmo:42050:1,2016-06-02T02:00:00Z,28.8425,-94.2433,2.0,356.6718722,7.061911922,-99999.0,'11133222,11111222,99999999' 
TABS,ioos:station:wmo:42050:1,2016-06-02T02:30:00Z,28.8425,-94.2433,2.0,350.1679549,11.71202801,-99999.0,'11111222,11111222,99999999' 
TABS,ioos:station:wmo:42050:1,2016-06-02T03:00:00Z,28.8425,-94.2433,2.0,349.5131234,14.33952928,-99999.0,'11111222,11111222,99999999' 
TABS,ioos:station:wmo:42050:1,2016-06-02T03:30:00Z,28.8425,-94.2433,2.0,348.4814185,16.67586579,-99999.0,'11111222,11111222,99999999' 
TABS,ioos:station:wmo:42050:1,2016-06-02T04:00:00Z,28.8425,-94.2433,2.0,350.2675082,15.67561801,-99999.0,'11111222,11111222,99999999' 
TABS,ioos:station:wmo:42050:1,2016-06-02T04:30:00Z,28.8425,-94.2433,2.0,343.9589061,14.76490772,-99999.0,'11111222,11111222,99999999' 
TABS,ioos:station:wmo:42050:1,2016-06-02T05:00:00Z,28.8425,-94.2433,2.0,0.967504736,13.03185712,-99999.0,'11111222,11111222,99999999' 
TABS,ioos:station:wmo:42050:1,2016-06-02T05:30:00Z,28.8425,-94.2433,2.0,359.1796887,11.87121729,-99999.0,'11111222,11144222,99999999' 
TABS,ioos:station:wmo:42050:1,2016-06-02T06:00:00Z,28.8425,-94.2433,2.0,5.870311117,10.36434754,-99999.0,'11111222,11111222,99999999' 
TABS,ioos:station:wmo:42050:1,2016-06-02T06:30:00Z,28.8425,-94.2433,2.0,23.55080314,8.334176624,-99999.0,'11133222,11111222,99999999' 
TABS,ioos:station:wmo:42050:1,2016-06-02T07:00:00Z,28.8425,-94.2433,2.0,13.26350819,5.753468519,-99999.0,'11133222,11111222,99999999' 
TABS,ioos:station:wmo:42050:1,2016-06-02T07:30:00Z,28.8425,-94.2433,2.0,36.04075327,3.178332896,-99999.0,'11133222,11111222,99999999' 
TABS,ioos:station:wmo:42050:1,2016-06-02T08:00:00Z,28.8425,-94.2433,2.0,89.26548068,0.7800641,-99999.0,'11133222,11111222,99999999' 
TABS,ioos:station:wmo:42050:1,2016-06-02T08:30:00Z,28.8425,-94.2433,2.0,196.6989947,0.522015325,-99999.0,'11133222,11111222,99999999' 
TABS,ioos:station:wmo:42050:1,2016-06-02T09:00:00Z,28.8425,-94.2433,2.0,293.8391054,1.880425484,-99999.0,'11133222,11111222,99999999' 
TABS,ioos:station:wmo:42050:1,2016-06-02T09:30:00Z,28.8425,-94.2433,2.0,334.6593011,5.233593412,-99999.0,'11133222,11111222,99999999' 
TABS,ioos:station:wmo:42050:1,2016-06-02T10:00:00Z,28.8425,-94.2433,2.0,91.66027849,5.522318354,-99999.0,'11133222,11111222,99999999' 
TABS,ioos:station:wmo:42050:1,2016-06-02T10:30:00Z,28.8425,-94.2433,2.0,81.37407329,8.334272614,-99999.0,'11133222,11111222,99999999' 
TABS,ioos:station:wmo:42050:1,2016-06-02T11:00:00Z,28.8425,-94.2433,2.0,72.02162363,11.11259646,-99999.0,'11111222,11111222,99999999' 
TABS,ioos:station:wmo:42050:1,2016-06-02T11:30:00Z,28.8425,-94.2433,2.0,78.08752548,13.61317377,-99999.0,'11111222,11111222,99999999' 
TABS,ioos:station:wmo:42050:1,2016-06-02T12:00:00Z,28.8425,-94.2433,2.0,84.36337731,16.18827353,-99999.0,'11111222,11111222,99999999' 
TABS,ioos:station:wmo:42050:1,2016-06-02T12:30:00Z,28.8425,-94.2433,2.0,91.3655911,16.36464787,-99999.0,'11111222,11111222,99999999' 
TABS,ioos:station:wmo:42050:1,2016-06-02T13:00:00Z,28.8425,-94.2433,2.0,104.2377937,15.1658465,-99999.0,'11111222,11111222,99999999' 
TABS,ioos:station:wmo:42050:1,2016-06-02T13:30:00Z,28.8425,-94.2433,2.0,95.75138864,18.1614234,-99999.0,'11111222,11111222,99999999' 
TABS,ioos:station:wmo:42050:1,2016-06-02T14:00:00Z,28.8425,-94.2433,2.0,100.7890509,16.8274597,-99999.0,'11111222,11111222,99999999' 
TABS,ioos:station:wmo:42050:1,2016-06-02T14:30:00Z,28.8425,-94.2433,2.0,104.3073237,15.37693077,-99999.0,'11111222,11111222,99999999' 
TABS,ioos:station:wmo:42050:1,2016-06-02T15:00:00Z,28.8425,-94.2433,2.0,94.00144419,12.61074145,-99999.0,'11111222,11111222,99999999' 
TABS,ioos:station:wmo:42050:1,2016-06-02T15:30:00Z,28.8425,-94.2433,2.0,93.17730619,12.62941408,-99999.0,'11111222,11111222,99999999' 
TABS,ioos:station:wmo:42050:1,2016-06-02T16:00:00Z,28.8425,-94.2433,2.0,110.1238112,10.08572258,-99999.0,'11111222,11111222,99999999' 
TABS,ioos:station:wmo:42050:1,2016-06-02T16:30:00Z,28.8425,-94.2433,2.0,85.98042691,11.12737166,-99999.0,'11111222,11111222,99999999' 
TABS,ioos:station:wmo:42050:1,2016-06-02T17:00:00Z,28.8425,-94.2433,2.0,77.66592337,17.55519866,-99999.0,'11111222,11111222,99999999' 
TABS,ioos:station:wmo:42050:1,2016-06-02T17:30:00Z,28.8425,-94.2433,2.0,70.11913614,21.55462363,-99999.0,'11111222,11111222,99999999' 
TABS,ioos:station:wmo:42050:1,2016-06-02T18:00:00Z,28.8425,-94.2433,2.0,94.82991083,32.30471328,-99999.0,'11111222,11111222,99999999' 
TABS,ioos:station:wmo:42050:1,2016-06-02T18:30:00Z,28.8425,-94.2433,2.0,109.2027018,39.64587242,-99999.0,'11111222,11111222,99999999' 
TABS,ioos:station:wmo:42050:1,2016-06-02T19:00:00Z,28.8425,-94.2433,2.0,115.8746447,44.91244928,-99999.0,'11111222,11111222,99999999' 
TABS,ioos:station:wmo:42050:1,2016-06-02T19:30:00Z,28.8425,-94.2433,2.0,120.9571537,45.14014289,-99999.0,'11111222,11111222,99999999' 
TABS,ioos:station:wmo:42050:1,2016-06-02T20:00:00Z,28.8425,-94.2433,2.0,127.8473756,47.47691018,-99999.0,'11111222,11111222,99999999' 
TABS,ioos:station:wmo:42050:1,2016-06-02T20:30:00Z,28.8425,-94.2433,2.0,127.7906109,51.2746214,-99999.0,'11111222,11111222,99999999' 
TABS,ioos:station:wmo:42050:1,2016-06-02T21:00:00Z,28.8425,-94.2433,2.0,142.2818635,56.34417272,-99999.0,'11111222,11111222,99999999' 
TABS,ioos:station:wmo:42050:1,2016-06-02T21:30:00Z,28.8425,-94.2433,2.0,150.5231632,53.79321333,-99999.0,'11111222,11111222,99999999' 
TABS,ioos:station:wmo:42050:1,2016-06-02T22:00:00Z,28.8425,-94.2433,2.0,158.3148578,54.83037571,-99999.0,'11111222,11111222,99999999' 
TABS,ioos:station:wmo:42050:1,2016-06-02T22:30:00Z,28.8425,-94.2433,2.0,164.7133754,44.90888554,-99999.0,'11111222,11111222,99999999' 
TABS,ioos:station:wmo:42050:1,2016-06-02T23:00:00Z,28.8425,-94.2433,2.0,174.7135049,50.25374115,-99999.0,'11111222,11111222,99999999' 
TABS,ioos:station:wmo:42050:1,2016-06-02T23:30:00Z,28.8425,-94.2433,2.0,175.3690216,49.42132839,-99999.0,'11111222,11111222,99999999' 
TABS,ioos:station:wmo:42050:1,2016-06-03T00:00:00Z,28.8425,-94.2433,2.0,185.7865046,44.92895392,-99999.0,'11111222,11111222,99999999' 
TABS,ioos:station:wmo:42050:1,2016-06-03T00:30:00Z,28.8425,-94.2433,2.0,179.8569436,40.11012466,-99999.0,'11111222,11111222,99999999' 
TABS,ioos:station:wmo:42050:1,2016-06-03T01:00:00Z,28.8425,-94.2433,2.0,200.8037033,37.86901768,-99999.0,'11111222,11111222,99999999' 
TABS,ioos:station:wmo:42050:1,2016-06-03T01:30:00Z,28.8425,-94.2433,2.0,203.4155113,32.56160315,-99999.0,'11111222,11111222,99999999' 
TABS,ioos:station:wmo:42050:1,2016-06-03T02:00:00Z,28.8425,-94.2433,2.0,208.5880803,31.03361081,-99999.0,'11111222,11111222,99999999' 
TABS,ioos:station:wmo:42050:1,2016-06-03T02:30:00Z,28.8425,-94.2433,2.0,228.2399902,24.89460383,-99999.0,'11111222,11111222,99999999' 
TABS,ioos:station:wmo:42050:1,2016-06-03T03:00:00Z,28.8425,-94.2433,2.0,251.5864064,25.01045581,-99999.0,'11111222,11111222,99999999' 
TABS,ioos:station:wmo:42050:1,2016-06-03T03:30:00Z,28.8425,-94.2433,2.0,265.9816489,31.96857363,-99999.0,'11111222,11111222,99999999' 
TABS,ioos:station:wmo:42050:1,2016-06-03T04:00:00Z,28.8425,-94.2433,2.0,279.0455448,38.61012561,-99999.0,'11111222,11111222,99999999' 
TABS,ioos:station:wmo:42050:1,2016-06-03T04:30:00Z,28.8425,-94.2433,2.0,289.8258197,46.2619336,-99999.0,'11111222,11111222,99999999' 
TABS,ioos:station:wmo:42050:1,2016-06-03T05:00:00Z,28.8425,-94.2433,2.0,296.6339454,56.080625,-99999.0,'11111222,11111222,99999999' 
TABS,ioos:station:wmo:42050:1,2016-06-03T05:30:00Z,28.8425,-94.2433,2.0,304.8144205,56.97867408,-99999.0,'11111222,11111222,99999999' 
TABS,ioos:station:wmo:42050:1,2016-06-03T06:00:00Z,28.8425,-94.2433,2.0,312.0738603,59.69402064,-99999.0,'11111222,11111222,99999999' 
TABS,ioos:station:wmo:42050:1,2016-06-03T06:30:00Z,28.8425,-94.2433,2.0,316.3906814,60.90689698,-99999.0,'11111222,11111222,99999999' 
TABS,ioos:station:wmo:42050:1,2016-06-03T07:00:00Z,28.8425,-94.2433,2.0,318.7052314,58.76317639,-99999.0,'11111222,11111222,99999999' 
TABS,ioos:station:wmo:42050:1,2016-06-03T07:30:00Z,28.8425,-94.2433,2.0,321.1521873,56.5477011,-99999.0,'11111222,11111222,99999999' 
TABS,ioos:station:wmo:42050:1,2016-06-03T08:00:00Z,28.8425,-94.2433,2.0,326.3558393,59.21981172,-99999.0,'11111222,11111222,99999999' 
TABS,ioos:station:wmo:42050:1,2016-06-03T08:30:00Z,28.8425,-94.2433,2.0,329.164185,50.80143699,-99999.0,'11111222,11111222,99999999' 
TABS,ioos:station:wmo:42050:1,2016-06-03T09:00:00Z,28.8425,-94.2433,2.0,335.9394693,51.48320309,-99999.0,'11111222,11111222,99999999' 
TABS,ioos:station:wmo:42050:1,2016-06-03T09:30:00Z,28.8425,-94.2433,2.0,347.1677993,46.87065287,-99999.0,'11111222,11111222,99999999' 
TABS,ioos:station:wmo:42050:1,2016-06-03T10:00:00Z,28.8425,-94.2433,2.0,346.1131247,48.45635665,-99999.0,'11111222,11111222,99999999' 
TABS,ioos:station:wmo:42050:1,2016-06-03T10:30:00Z,28.8425,-94.2433,2.0,346.7209894,48.28092998,-99999.0,'11111222,11111222,99999999' 
TABS,ioos:station:wmo:42050:1,2016-06-03T11:00:00Z,28.8425,-94.2433,2.0,344.699708,50.89393874,-99999.0,'11111222,11111222,99999999' 
TABS,ioos:station:wmo:42050:1,2016-06-03T11:30:00Z,28.8425,-94.2433,2.0,348.5568957,64.01248003,-99999.0,'11111222,11111222,99999999' 
TABS,ioos:station:wmo:42050:1,2016-06-03T12:00:00Z,28.8425,-94.2433,2.0,355.3062826,59.38918841,-99999.0,'11111222,11111222,99999999' 
TABS,ioos:station:wmo:42050:1,2016-06-03T12:30:00Z,28.8425,-94.2433,2.0,359.6481679,58.59110598,-99999.0,'11111222,11144222,99999999' 
TABS,ioos:station:wmo:42050:1,2016-06-03T13:00:00Z,28.8425,-94.2433,2.0,359.2925386,59.91457001,-99999.0,'11111222,11144222,99999999' 
TABS,ioos:station:wmo:42050:1,2016-06-03T13:30:00Z,28.8425,-94.2433,2.0,7.648855736,51.16522452,-99999.0,'11111222,11111222,99999999' 
TABS,ioos:station:wmo:42050:1,2016-06-03T14:00:00Z,28.8425,-94.2433,2.0,15.04696281,45.10651505,-99999.0,'11111222,11111222,99999999' 
TABS,ioos:station:wmo:42050:1,2016-06-03T14:30:00Z,28.8425,-94.2433,2.0,17.14897138,44.80178791,-99999.0,'11111222,11111222,99999999' 
TABS,ioos:station:wmo:42050:1,2016-06-03T15:00:00Z,28.8425,-94.2433,2.0,13.60644309,43.95354366,-99999.0,'11111222,11111222,99999999' 
TABS,ioos:station:wmo:42050:1,2016-06-03T15:30:00Z,28.8425,-94.2433,2.0,21.63499333,32.57481389,-99999.0,'11111222,11111222,99999999' 
TABS,ioos:station:wmo:42050:1,2016-06-03T16:00:00Z,28.8425,-94.2433,2.0,17.6811972,32.92532308,-99999.0,'11111222,11111222,99999999' 
TABS,ioos:station:wmo:42050:1,2016-06-03T16:30:00Z,28.8425,-94.2433,2.0,14.68328809,27.49801629,-99999.0,'11111222,11111222,99999999' 
TABS,ioos:station:wmo:42050:1,2016-06-03T17:00:00Z,28.8425,-94.2433,2.0,32.93458678,31.96737869,-99999.0,'11111222,11111222,99999999' 
TABS,ioos:station:wmo:42050:1,2016-06-03T17:30:00Z,28.8425,-94.2433,2.0,46.19769634,26.72740354,-99999.0,'11111222,11111222,99999999' 
TABS,ioos:station:wmo:42050:1,2016-06-03T18:00:00Z,28.8425,-94.2433,2.0,45.63637599,28.01729823,-99999.0,'11111222,11111222,99999999' 
TABS,ioos:station:wmo:42050:1,2016-06-03T18:30:00Z,28.8425,-94.2433,2.0,59.70817419,24.42479273,-99999.0,'11111222,11111222,99999999' 
TABS,ioos:station:wmo:42050:1,2016-06-03T19:00:00Z,28.8425,-94.2433,2.0,78.62055549,27.47000728,-99999.0,'11111222,11111222,99999999' 
TABS,ioos:station:wmo:42050:1,2016-06-03T19:30:00Z,28.8425,-94.2433,2.0,85.41477609,28.2704793,-99999.0,'11111222,11111222,99999999' 
TABS,ioos:station:wmo:42050:1,2016-06-03T20:00:00Z,28.8425,-94.2433,2.0,99.22341035,29.57234688,-99999.0,'11111222,11111222,99999999' 
TABS,ioos:station:wmo:42050:1,2016-06-03T20:30:00Z,28.8425,-94.2433,2.0,130.0388602,38.34864404,-99999.0,'11111222,11111222,99999999' 
TABS,ioos:station:wmo:42050:1,2016-06-03T21:00:00Z,28.8425,-94.2433,2.0,132.7195901,40.87485535,-99999.0,'11111222,11111222,99999999' 
TABS,ioos:station:wmo:42050:1,2016-06-03T21:30:00Z,28.8425,-94.2433,2.0,135.9473233,41.90887734,-99999.0,'11111222,11111222,99999999' 
TABS,ioos:station:wmo:42050:1,2016-06-03T22:00:00Z,28.8425,-94.2433,2.0,139.8606024,38.47061346,-99999.0,'11111222,11111222,99999999' 
TABS,ioos:station:wmo:42050:1,2016-06-03T22:30:00Z,28.8425,-94.2433,2.0,143.5796442,39.24520862,-99999.0,'11111222,11111222,99999999' 
TABS,ioos:station:wmo:42050:1,2016-06-03T23:00:00Z,28.8425,-94.2433,2.0,147.0823117,66.65051313,-99999.0,'11111222,11111222,99999999' 
TABS,ioos:station:wmo:42050:1,2016-06-03T23:30:00Z,28.8425,-94.2433,2.0,155.7315666,63.1615231,-99999.0,'11111222,11111222,99999999' 
TABS,ioos:station:wmo:42050:1,2016-06-04T00:00:00Z,28.8425,-94.2433,2.0,162.6516796,58.18688942,-99999.0,'11111222,11111222,99999999' 
TABS,ioos:station:wmo:42050:1,2016-06-04T00:30:00Z,28.8425,-94.2433,2.0,169.2357603,58.25501953,-99999.0,'11111222,11111222,99999999' 
TABS,ioos:station:wmo:42050:1,2016-06-04T01:00:00Z,28.8425,-94.2433,2.0,167.8689171,49.82253506,-99999.0,'11111222,11111222,99999999' 
TABS,ioos:station:wmo:42050:1,2016-06-04T01:30:00Z,28.8425,-94.2433,2.0,172.2016945,52.47527513,-99999.0,'11111222,11111222,99999999' 
TABS,ioos:station:wmo:42050:1,2016-06-04T02:00:00Z,28.8425,-94.2433,2.0,177.9819872,51.12169892,-99999.0,'11111222,11111222,99999999' 
TABS,ioos:station:wmo:42050:1,2016-06-04T02:30:00Z,28.8425,-94.2433,2.0,184.4399306,50.89274212,-99999.0,'11111222,11111222,99999999' 
TABS,ioos:station:wmo:42050:1,2016-06-04T03:00:00Z,28.8425,-94.2433,2.0,190.3246761,45.97445486,-99999.0,'11111222,11111222,99999999' 
TABS,ioos:station:wmo:42050:1,2016-06-04T03:30:00Z,28.8425,-94.2433,2.0,197.4708995,39.10393331,-99999.0,'11111222,11111222,99999999' 
TABS,ioos:station:wmo:42050:1,2016-06-04T04:00:00Z,28.8425,-94.2433,2.0,208.4385354,35.69778845,-99999.0,'11111222,11111222,99999999' 
TABS,ioos:station:wmo:42050:1,2016-06-04T04:30:00Z,28.8425,-94.2433,2.0,213.788632,32.15047123,-99999.0,'11111222,11111222,99999999' 
TABS,ioos:station:wmo:42050:1,2016-06-04T05:00:00Z,28.8425,-94.2433,2.0,226.2972433,29.35245816,-99999.0,'11111222,11111222,99999999' 
TABS,ioos:station:wmo:42050:1,2016-06-04T05:30:00Z,28.8425,-94.2433,2.0,239.3645738,28.10222055,-99999.0,'11111222,11111222,99999999' 
TABS,ioos:station:wmo:42050:1,2016-06-04T06:00:00Z,28.8425,-94.2433,2.0,253.2222104,31.59488724,-99999.0,'11111222,11111222,99999999' 
TABS,ioos:station:wmo:42050:1,2016-06-04T06:30:00Z,28.8425,-94.2433,2.0,262.6802528,32.18223734,-99999.0,'11111222,11111222,99999999' 
TABS,ioos:station:wmo:42050:1,2016-06-04T07:00:00Z,28.8425,-94.2433,2.0,268.681256,32.59862881,-99999.0,'11111222,11111222,99999999' 
TABS,ioos:station:wmo:42050:1,2016-06-04T07:30:00Z,28.8425,-94.2433,2.0,273.1105364,34.6510375,-99999.0,'11111222,11111222,99999999' 
TABS,ioos:station:wmo:42050:1,2016-06-04T08:00:00Z,28.8425,-94.2433,2.0,278.3048973,38.56436827,-99999.0,'11111222,11111222,99999999' 
TABS,ioos:station:wmo:42050:1,2016-06-04T08:30:00Z,28.8425,-94.2433,2.0,281.8254365,40.35644806,-99999.0,'11111222,11111222,99999999' 
TABS,ioos:station:wmo:42050:1,2016-06-04T09:00:00Z,28.8425,-94.2433,2.0,287.7066142,45.9990489,-99999.0,'11111222,11111222,99999999' 
TABS,ioos:station:wmo:42050:1,2016-06-04T09:30:00Z,28.8425,-94.2433,2.0,289.3851174,44.25899457,-99999.0,'11111222,11111222,99999999' 
TABS,ioos:station:wmo:42050:1,2016-06-04T10:00:00Z,28.8425,-94.2433,2.0,292.2631992,48.88402602,-99999.0,'11111222,11111222,99999999' 
TABS,ioos:station:wmo:42050:1,2016-06-04T10:30:00Z,28.8425,-94.2433,2.0,294.8827484,52.23918548,-99999.0,'11111222,11111222,99999999' 
TABS,ioos:station:wmo:42050:1,2016-06-04T11:00:00Z,28.8425,-94.2433,2.0,302.7859341,49.89872644,-99999.0,'11111222,11111222,99999999' 
TABS,ioos:station:wmo:42050:1,2016-06-04T11:30:00Z,28.8425,-94.2433,2.0,306.8234052,44.04801471,-99999.0,'11111222,11111222,99999999' 
TABS,ioos:station:wmo:42050:1,2016-06-04T12:00:00Z,28.8425,-94.2433,2.0,315.3948472,46.21052369,-99999.0,'11111222,11111222,99999999' 
TABS,ioos:station:wmo:42050:1,2016-06-04T12:30:00Z,28.8425,-94.2433,2.0,320.3319184,39.57119154,-99999.0,'11111222,11111222,99999999' 
TABS,ioos:station:wmo:42050:1,2016-06-04T13:00:00Z,28.8425,-94.2433,2.0,329.1884899,37.50344251,-99999.0,'11111222,11111222,99999999' 
TABS,ioos:station:wmo:42050:1,2016-06-04T13:30:00Z,28.8425,-94.2433,2.0,344.2364099,36.84578266,-99999.0,'11111222,11111222,99999999' 
TABS,ioos:station:wmo:42050:1,2016-06-04T14:00:00Z,28.8425,-94.2433,2.0,359.9652528,32.7800061,-99999.0,'11111222,11144222,99999999' 
TABS,ioos:station:wmo:42050:1,2016-06-04T14:30:00Z,28.8425,-94.2433,2.0,10.80158861,34.47072961,-99999.0,'11111222,11111222,99999999' 
TABS,ioos:station:wmo:42050:1,2016-06-04T15:00:00Z,28.8425,-94.2433,2.0,20.4803457,37.12665485,-99999.0,'11111222,11111222,99999999' 
TABS,ioos:station:wmo:42050:1,2016-06-04T15:30:00Z,28.8425,-94.2433,2.0,31.04727154,37.7125788,-99999.0,'11111222,11111222,99999999' 
TABS,ioos:station:wmo:42050:1,2016-06-04T16:00:00Z,28.8425,-94.2433,2.0,41.92950763,36.8295004,-99999.0,'11111222,11111222,99999999' 